TimeCDT,TemperatureF,Dew PointF,Humidity,Sea Level PressureIn,VisibilityMPH,Wind Direction,Wind SpeedMPH,Gust SpeedMPH,PrecipitationIn,Events,Conditions,WindDirDegrees,DateUTC
12:56 AM,61.0,39.9,46,29.98,10.0,NE,9.2,-,N/A,,Clear,50,2013-03-20 05:56:00
1:56 AM,61.0,37.0,41,29.98,10.0,NNE,9.2,17.3,N/A,,Clear,30,2013-03-20 06:56:00
2:56 AM,61.0,34.0,36,29.97,10.0,NNE,11.5,-,N/A,,Clear,30,2013-03-20 07:56:00
3:56 AM,61.0,33.1,35,29.96,10.0,NNE,12.7,-,N/A,,Overcast,30,2013-03-20 08:56:00
4:56 AM,60.1,33.1,36,29.97,10.0,NE,9.2,-,N/A,,Scattered Clouds,40,2013-03-20 09:56:00
5:56 AM,59.0,34.0,39,30.02,10.0,NNE,11.5,-,N/A,,Overcast,20,2013-03-20 10:56:00
5:58 AM,59.0,33.8,39,30.02,10.0,NNE,10.4,-,N/A,,Overcast,20,2013-03-20 10:58:00
6:56 AM,57.0,34.0,42,30.05,10.0,NNE,11.5,-,N/A,,Overcast,20,2013-03-20 11:56:00
7:56 AM,55.9,34.0,44,30.08,10.0,North,10.4,-,N/A,,Overcast,10,2013-03-20 12:56:00
8:56 AM,57.9,34.0,41,30.08,10.0,NNE,11.5,-,N/A,,Overcast,20,2013-03-20 13:56:00
9:56 AM,60.1,30.9,33,30.08,10.0,NNE,15.0,21.9,N/A,,Mostly Cloudy,30,2013-03-20 14:56:00
10:56 AM,62.1,30.0,30,30.08,10.0,NE,9.2,-,N/A,,Mostly Cloudy,50,2013-03-20 15:56:00
11:56 AM,64.0,30.9,29,30.06,9.0,NNE,12.7,-,N/A,,Overcast,20,2013-03-20 16:56:00
12:35 PM,60.8,35.6,39,30.07,10.0,NNW,6.9,-,0.00,Rain,Light Rain,330,2013-03-20 17:35:00
12:56 PM,57.9,44.1,60,30.06,10.0,Calm,Calm,-,0.00,Rain,Light Rain,0,2013-03-20 17:56:00
1:56 PM,60.1,37.0,42,30.05,10.0,NNW,6.9,-,0.00,,Mostly Cloudy,340,2013-03-20 18:56:00
2:56 PM,63.0,36.0,37,30.02,10.0,NNW,10.4,16.1,N/A,,Mostly Cloudy,340,2013-03-20 19:56:00
3:56 PM,64.9,35.1,33,30.01,10.0,North,8.1,-,N/A,,Scattered Clouds,360,2013-03-20 20:56:00
4:56 PM,66.0,35.1,32,29.99,10.0,NNW,8.1,-,N/A,,Partly Cloudy,340,2013-03-20 21:56:00
5:56 PM,64.0,30.0,28,29.99,10.0,NNW,10.4,19.6,N/A,,Partly Cloudy,340,2013-03-20 22:56:00
6:56 PM,59.0,30.0,33,29.99,10.0,North,6.9,-,N/A,,Clear,360,2013-03-20 23:56:00
7:56 PM,54.0,32.0,43,30.01,10.0,NNW,3.5,-,N/A,,Clear,340,2013-03-21 00:56:00
8:56 PM,48.0,34.0,58,30.03,10.0,NNW,3.5,-,N/A,,Clear,330,2013-03-21 01:56:00
9:56 PM,42.1,36.0,79,30.03,10.0,Calm,Calm,-,N/A,,Clear,0,2013-03-21 02:56:00
10:56 PM,39.9,35.1,83,30.03,10.0,Calm,Calm,-,N/A,,Clear,0,2013-03-21 03:56:00
11:56 PM,39.0,35.1,86,30.03,10.0,Calm,Calm,-,N/A,,Clear,0,2013-03-21 04:56:00